Simultaneous Nadir Overpasses (SNOs) Predictions

Prediction of SNOs between NOAA-19 and TERRA Satellite Orbit:

Table of predicted SNOs for the next 14.0 days since TLE Epoch: 3/11/2023
Index Date (NOAA-19) Time (NOAA-19) Lat,Lon (NOAA-19) SZA (NOAA-19 ) Date (TERRA) Time (TERRA) Lat,Lon (TERRA) SZA (TERRA ) Distance(km) Time Diff (sec)
1 03/12/2023 04:06:18 80.93, 153.43 85.75 03/12/2023 04:06:13 80.94, 153.45 85.75 0.78 5
2 03/14/2023 07:56:52 -80.93, -84.25 95.09 03/14/2023 07:56:51 -80.94, -84.23 95.09 0.78 1
3 03/16/2023 11:47:35 80.93, 38.05 84.07 03/16/2023 11:47:26 80.95, 38.20 84.09 3.01 9
4 03/18/2023 15:38:09 -80.93, 160.45 96.77 03/18/2023 15:38:03 -80.93, 160.34 96.78 1.84 6
5 03/20/2023 19:28:51 80.93, -77.37 82.39 03/20/2023 19:28:37 80.92, -77.47 82.36 2.22 14
6 03/22/2023 23:19:25 -80.93, 45.17 98.44 03/22/2023 23:19:11 -80.94, 45.17 98.43 1.50 14



Historial Predications of SNOs between NOAA-19 and TERRA
